{"data":{"norad_id":47830,"intl_designator":"2021-018AV","name":"STARLINK-2419","alt_names":[],"object_type":"PAYLOAD","status":"ACTIVE","operator":null,"country":"US","launch_date":"2021-03-11","launch_site_code":"AFETR","launch_vehicle":null,"mission":null,"orbit_class":"UNKNOWN","rcs_meters":null,"size_class":null,"mass_kg":null,"dimensions":null,"purposes":["comms"],"wikipedia_slug":null,"has_3d_model":false,"image_url":null,"decayed_at":null,"tle_current":{"epoch":"2026-05-25T00:49:14.733120Z","epoch_age_seconds":75382,"freshness":"FRESH","line1":"1 47830U 21018AV  26145.03419830  .00001301  00000+0  53665-4 0  9993","line2":"2 47830  53.1608 260.5356 0001547  87.1048 273.0130 15.31708031288237","mean_motion":15.31708031,"eccentricity":0.0001547,"inclination_deg":53.1608,"raan_deg":260.5356,"arg_perigee_deg":87.1048,"mean_anomaly_deg":273.013,"bstar":5.3665e-5,"rev_number":28823,"period_min":94.012695034306,"perigee_km":469.65653776949,"apogee_km":471.77557290481,"semimajor_km":6848.8530553371,"source":"CELESTRAK","updated_at":"2026-05-25T13:38:16.605532Z"}}}